Simultaneous Nadir Overpasses (SNOs) Predictions

Prediction of SNOs between GOES-16 and METOP-C Satellite Orbit:

Table of predicted SNOs for the next 14.0 days since TLE Epoch: 5/16/2021
Index Date Time (GOES-16) GOES-16 Lat,Lon METOP-C Lat,Lon Distance(km) Time Diff (sec)
1 05/17/2021 14:42:46 0.02, -75.20 0.49, -77.34 243.19 80
2 05/18/2021 14:19:26 0.02, -75.20 -0.63, -72.35 324.98 80
3 05/20/2021 02:41:08 -0.02, -75.19 -0.38, -76.95 200.54 80
4 05/21/2021 02:17:48 -0.02, -75.18 0.73, -71.96 368.02 80
5 05/22/2021 14:36:38 0.02, -75.18 0.29, -76.51 151.81 80
6 05/23/2021 14:15:59 0.02, -75.17 -0.82, -71.52 417.09 80
7 05/25/2021 02:37:39 -0.02, -75.17 -0.24, -76.11 107.50 80
8 05/26/2021 02:14:20 -0.02, -75.17 0.88, -71.12 461.45 80
9 05/27/2021 14:35:50 0.02, -75.17 0.15, -75.68 57.98 80
10 05/30/2021 02:34:12 -0.02, -75.17 -0.03, -75.29 12.90 80
